| time (UTC) | temp C | wind direction | speed KPH | gust KPH | rain 1hr cm | rain 24hr cm | rain mn cm | humidity % | barometer mb |
| 20260506002232 | 18 | 330 | 3.2 | 0.0 | 0.00 | 0.00 | 0.00 | 67 | 1014.3 |
| 20260506001723 | 19 | 295 | 1.6 | 0.0 | 0.00 | 0.00 | 0.00 | 66 | 1014.4 |
| 20260506001231 | 18 | 298 | 1.6 | 0.0 | 0.00 | 0.00 | 0.00 | 67 | 1014.4 |
| 20260506000740 | 18 | 347 | 0.0 | 0.0 | 0.00 | 0.00 | 0.00 | 68 | 1014.4 |
| 20260506000229 | 18 | 286 | 0.0 | 0.0 | 0.00 | 0.00 | 0.00 | 68 | 1014.5 |
| 20260505235732 | 18 | 157 | 0.0 | 0.0 | 0.00 | 0.00 | 0.00 | 71 | 1014.5 |
| 20260505235218 | 18 | 315 | 0.0 | 0.0 | 0.00 | 0.00 | 0.00 | 70 | 1014.6 |
| 20260505234733 | 18 | 314 | 0.0 | 0.0 | 0.00 | 0.00 | 0.00 | 71 | 1014.7 |
| 20260505234231 | 18 | 355 | 0.0 | 0.0 | 0.00 | 0.00 | 0.00 | 69 | 1014.8 |
| 20260505233728 | 18 | 9 | 0.0 | 0.0 | 0.00 | 0.00 | 0.00 | 70 | 1014.8 |
| 20260505233239 | 18 | 9 | 0.0 | 0.0 | 0.00 | 0.00 | 0.00 | 70 | 1014.8 |
| 20260505232743 | 17 | 98 | 0.0 | 0.0 | 0.00 | 0.00 | 0.00 | 71 | 1014.8 |
| 20260505232230 | 18 | 209 | 0.0 | 0.0 | 0.00 | 0.00 | 0.00 | 70 | 1014.8 |
| 20260505231722 | 18 | 340 | 0.0 | 0.0 | 0.00 | 0.00 | 0.00 | 70 | 1014.8 |
| 20260505231224 | 18 | 331 | 0.0 | 0.0 | 0.00 | 0.00 | 0.00 | 70 | 1014.8 |
| 20260505230735 | 17 | 328 | 0.0 | 0.0 | 0.00 | 0.00 | 0.00 | 71 | 1014.9 |
| 20260505230245 | 17 | 328 | 0.0 | 0.0 | 0.00 | 0.00 | 0.00 | 71 | 1014.9 |
| 20260505225728 | 17 | 339 | 0.0 | 0.0 | 0.00 | 0.00 | 0.00 | 71 | 1014.9 |
| 20260505225237 | 17 | 313 | 0.0 | 0.0 | 0.00 | 0.00 | 0.00 | 72 | 1014.9 |
| 20260505224742 | 17 | 80 | 0.0 | 0.0 | 0.00 | 0.00 | 0.00 | 71 | 1015.0 |
| 20260505224224 | 17 | 80 | 0.0 | 0.0 | 0.00 | 0.00 | 0.00 | 72 | 1015.0 |
| 20260505223742 | 17 | 172 | 0.0 | 0.0 | 0.00 | 0.00 | 0.00 | 72 | 1015.1 |
| 20260505223231 | 17 | 172 | 0.0 | 0.0 | 0.00 | 0.00 | 0.00 | 73 | 1015.1 |
| 20260505222718 | 17 | 180 | 0.0 | 0.0 | 0.00 | 0.00 | 0.00 | 73 | 1015.1 |
| 20260505222228 | 17 | 243 | 0.0 | 0.0 | 0.00 | 0.00 | 0.00 | 72 | 1015.1 |
| 20260505221739 | 17 | 243 | 0.0 | 0.0 | 0.00 | 0.00 | 0.00 | 72 | 1015.1 |
| 20260505221223 | 17 | 138 | 0.0 | 0.0 | 0.00 | 0.00 | 0.00 | 72 | 1015.2 |
| 20260505220754 | 17 | 101 | 0.0 | 0.0 | 0.00 | 0.00 | 0.00 | 72 | 1015.2 |
| 20260505220239 | 17 | 101 | 0.0 | 0.0 | 0.00 | 0.00 | 0.00 | 73 | 1015.3 |
| 20260505215727 | 17 | 101 | 0.0 | 0.0 | 0.00 | 0.00 | 0.00 | 73 | 1015.3 |
| 20260505215235 | 17 | 144 | 0.0 | 0.0 | 0.00 | 0.00 | 0.00 | 72 | 1015.3 |
| 20260505214748 | 17 | 214 | 0.0 | 0.0 | 0.00 | 0.00 | 0.00 | 73 | 1015.2 |
| 20260505214229 | 17 | 214 | 0.0 | 0.0 | 0.00 | 0.00 | 0.00 | 72 | 1015.3 |
| 20260505213737 | 17 | 219 | 0.0 | 0.0 | 0.00 | 0.00 | 0.00 | 73 | 1015.3 |
| 20260505213250 | 17 | 160 | 0.0 | 0.0 | 0.00 | 0.00 | 0.00 | 72 | 1015.3 |
| 20260505212742 | 17 | 148 | 0.0 | 0.0 | 0.00 | 0.00 | 0.00 | 73 | 1015.3 |
| 20260505212246 | 17 | 190 | 0.0 | 0.0 | 0.00 | 0.00 | 0.00 | 73 | 1015.4 |
| 20260505211732 | 17 | 190 | 0.0 | 0.0 | 0.00 | 0.00 | 0.00 | 74 | 1015.4 |
| 20260505211243 | 17 | 231 | 0.0 | 0.0 | 0.00 | 0.00 | 0.00 | 73 | 1015.5 |
| 20260505210724 | 16 | 314 | 0.0 | 0.0 | 0.00 | 0.00 | 0.00 | 73 | 1015.5 |
| 20260505210255 | 16 | 169 | 0.0 | 0.0 | 0.00 | 0.00 | 0.00 | 74 | 1015.5 |
| 20260505205727 | 16 | 5 | 0.0 | 0.0 | 0.00 | 0.00 | 0.00 | 72 | 1015.5 |
| 20260505205236 | 16 | 155 | 0.0 | 0.0 | 0.00 | 0.00 | 0.00 | 75 | 1015.4 |
| 20260505204751 | 17 | 157 | 0.0 | 0.0 | 0.00 | 0.00 | 0.00 | 74 | 1015.5 |
| 20260505204223 | 17 | 238 | 0.0 | 0.0 | 0.00 | 0.00 | 0.00 | 72 | 1015.5 |
| 20260505203740 | 17 | 345 | 0.0 | 0.0 | 0.00 | 0.00 | 0.00 | 72 | 1015.6 |
| 20260505203238 | 17 | 312 | 0.0 | 0.0 | 0.00 | 0.00 | 0.00 | 71 | 1015.6 |
| 20260505202733 | 17 | 340 | 0.0 | 0.0 | 0.00 | 0.00 | 0.00 | 72 | 1015.6 |
| 20260505202235 | 16 | 340 | 1.6 | 0.0 | 0.00 | 0.00 | 0.00 | 74 | 1015.6 |
| 20260505201726 | 16 | 177 | 1.6 | 0.0 | 0.00 | 0.00 | 0.00 | 73 | 1015.6 |
| 20260505201240 | 16 | 171 | 0.0 | 0.0 | 0.00 | 0.00 | 0.00 | 74 | 1015.6 |
| 20260505200742 | 16 | 344 | 0.0 | 0.0 | 0.00 | 0.00 | 0.00 | 72 | 1015.7 |
| 20260505200230 | 16 | 324 | 0.0 | 0.0 | 0.00 | 0.00 | 0.00 | 74 | 1015.7 |
| 20260505195721 | 16 | 324 | 0.0 | 0.0 | 0.00 | 0.00 | 0.00 | 75 | 1015.7 |
| 20260505195248 | 16 | 190 | 0.0 | 0.0 | 0.00 | 0.00 | 0.00 | 75 | 1015.8 |
| 20260505194729 | 16 | 246 | 0.0 | 0.0 | 0.00 | 0.00 | 0.00 | 75 | 1015.7 |
| 20260505194236 | 16 | 246 | 0.0 | 0.0 | 0.00 | 0.00 | 0.00 | 77 | 1015.7 |
| 20260505193742 | 15 | 165 | 1.6 | 0.0 | 0.00 | 0.00 | 0.00 | 77 | 1015.8 |
| 20260505193224 | 15 | 165 | 1.6 | 0.0 | 0.00 | 0.00 | 0.00 | 77 | 1015.7 |
| 20260505192737 | 15 | 150 | 1.6 | 0.0 | 0.00 | 0.00 | 0.00 | 78 | 1015.8 |
| 20260505192253 | 15 | 153 | 1.6 | 0.0 | 0.00 | 0.00 | 0.00 | 77 | 1015.9 |
| 20260505191807 | 15 | 168 | 0.0 | 0.0 | 0.00 | 0.00 | 0.00 | 77 | 1015.9 |
| 20260505191256 | 15 | 168 | 1.6 | 0.0 | 0.00 | 0.00 | 0.00 | 77 | 1015.9 |
| 20260505190734 | 15 | 173 | 0.0 | 0.0 | 0.00 | 0.00 | 0.00 | 77 | 1015.8 |
| 20260505190227 | 15 | 208 | 0.0 | 0.0 | 0.00 | 0.00 | 0.00 | 77 | 1015.8 |
| 20260505185735 | 15 | 296 | 0.0 | 0.0 | 0.00 | 0.00 | 0.00 | 77 | 1015.8 |
| 20260505185224 | 15 | 296 | 0.0 | 0.0 | 0.00 | 0.00 | 0.00 | 79 | 1015.8 |
| 20260505184734 | 15 | 265 | 0.0 | 0.0 | 0.00 | 0.00 | 0.00 | 77 | 1015.8 |
| 20260505184237 | 15 | 269 | 0.0 | 0.0 | 0.00 | 0.00 | 0.00 | 77 | 1015.8 |
| 20260505183730 | 15 | 335 | 0.0 | 0.0 | 0.00 | 0.00 | 0.00 | 77 | 1015.8 |
| 20260505183236 | 15 | 335 | 0.0 | 0.0 | 0.00 | 0.00 | 0.00 | 78 | 1015.8 |
| 20260505182738 | 15 | 315 | 0.0 | 0.0 | 0.00 | 0.00 | 0.00 | 78 | 1015.8 |
| 20260505182230 | 15 | 316 | 0.0 | 0.0 | 0.00 | 0.00 | 0.00 | 78 | 1015.8 |
| 20260505181743 | 15 | 314 | 0.0 | 0.0 | 0.00 | 0.00 | 0.00 | 79 | 1015.8 |
| 20260505181246 | 15 | 317 | 0.0 | 0.0 | 0.00 | 0.00 | 0.00 | 79 | 1015.8 |
| 20260505180738 | 15 | 317 | 0.0 | 0.0 | 0.00 | 0.00 | 0.00 | 80 | 1015.8 |
| 20260505180226 | 15 | 297 | 0.0 | 0.0 | 0.00 | 0.00 | 0.00 | 79 | 1015.7 |
| 20260505175729 | 15 | 323 | 0.0 | 0.0 | 0.00 | 0.00 | 0.00 | 80 | 1015.7 |
| 20260505175255 | 15 | 323 | 0.0 | 0.0 | 0.00 | 0.00 | 0.00 | 81 | 1015.7 |
| 20260505174725 | 14 | 360 | 0.0 | 0.0 | 0.00 | 0.00 | 0.00 | 80 | 1015.8 |
| 20260505174233 | 14 | 107 | 0.0 | 0.0 | 0.00 | 0.00 | 0.00 | 82 | 1015.6 |
| 20260505173738 | 14 | 107 | 0.0 | 0.0 | 0.00 | 0.00 | 0.00 | 83 | 1015.6 |
| 20260505173226 | 13 | 155 | 0.0 | 0.0 | 0.00 | 0.00 | 0.00 | 83 | 1015.6 |
| 20260505172736 | 13 | 155 | 0.0 | 0.0 | 0.00 | 0.00 | 0.00 | 85 | 1015.6 |
| 20260505172233 | 13 | 155 | 0.0 | 0.0 | 0.00 | 0.00 | 0.00 | 85 | 1015.7 |
| 20260505171833 | 13 | 155 | 0.0 | 0.0 | 0.00 | 0.00 | 0.00 | 85 | 1015.6 |
| 20260505071740 | 12 | 128 | 1.6 | 0.0 | 0.00 | 0.00 | 0.00 | 87 | 1012.9 |
| 20260505071225 | 12 | 180 | 1.6 | 0.0 | 0.00 | 0.00 | 0.00 | 87 | 1013.0 |
| 20260505070739 | 12 | 129 | 0.0 | 0.0 | 0.00 | 0.00 | 0.00 | 87 | 1013.0 |
| 20260505070245 | 12 | 165 | 0.0 | 0.0 | 0.00 | 0.00 | 0.00 | 87 | 1012.9 |
| 20260505065727 | 12 | 157 | 1.6 | 0.0 | 0.00 | 0.00 | 0.00 | 87 | 1013.0 |
| 20260505065234 | 12 | 189 | 1.6 | 0.0 | 0.00 | 0.00 | 0.00 | 87 | 1012.9 |
| 20260505064723 | 12 | 163 | 1.6 | 0.0 | 0.00 | 0.00 | 0.00 | 87 | 1012.9 |
| 20260505064231 | 12 | 186 | 0.0 | 0.0 | 0.00 | 0.00 | 0.00 | 87 | 1012.9 |
| 20260505063745 | 12 | 163 | 0.0 | 0.0 | 0.00 | 0.00 | 0.00 | 87 | 1012.9 |
| 20260505063226 | 12 | 159 | 0.0 | 0.0 | 0.00 | 0.00 | 0.00 | 87 | 1012.8 |
| 20260505062723 | 12 | 154 | 0.0 | 0.0 | 0.00 | 0.00 | 0.00 | 87 | 1012.8 |
| 20260505062229 | 12 | 178 | 0.0 | 0.0 | 0.00 | 0.00 | 0.00 | 87 | 1012.7 |
| 20260505061729 | 12 | 178 | 1.6 | 0.0 | 0.00 | 0.00 | 0.00 | 86 | 1012.7 |
| 20260505061228 | 12 | 186 | 1.6 | 0.0 | 0.00 | 0.00 | 0.00 | 86 | 1012.8 |
| 20260505060741 | 13 | 173 | 1.6 | 0.0 | 0.00 | 0.00 | 0.00 | 85 | 1012.7 |
| 20260505060250 | 13 | 169 | 3.2 | 0.0 | 0.00 | 0.00 | 0.00 | 85 | 1012.7 |
| 20260505055721 | 13 | 161 | 1.6 | 0.0 | 0.00 | 0.00 | 0.00 | 85 | 1012.8 |
| 20260505055221 | 13 | 180 | 3.2 | 0.0 | 0.00 | 0.00 | 0.00 | 85 | 1012.8 |
| 20260505054737 | 13 | 198 | 3.2 | 0.0 | 0.00 | 0.00 | 0.00 | 85 | 1012.8 |
| 20260505054230 | 13 | 173 | 1.6 | 0.0 | 0.00 | 0.00 | 0.00 | 85 | 1012.8 |
| 20260505053805 | 13 | 163 | 1.6 | 0.0 | 0.00 | 0.00 | 0.00 | 85 | 1012.7 |
| 20260505053231 | 13 | 177 | 0.0 | 0.0 | 0.00 | 0.00 | 0.00 | 86 | 1012.8 |
| 20260505052727 | 13 | 133 | 0.0 | 0.0 | 0.00 | 0.00 | 0.00 | 85 | 1012.7 |
| 20260505052258 | 13 | 171 | 0.0 | 0.0 | 0.00 | 0.00 | 0.00 | 84 | 1012.6 |
| 20260505051724 | 13 | 173 | 0.0 | 0.0 | 0.00 | 0.00 | 0.00 | 84 | 1012.6 |
| 20260505051237 | 13 | 174 | 0.0 | 0.0 | 0.00 | 0.00 | 0.00 | 85 | 1012.6 |
| 20260505050720 | 14 | 174 | 0.0 | 0.0 | 0.00 | 0.00 | 0.00 | 83 | 1012.5 |
| 20260505050230 | 14 | 174 | 0.0 | 0.0 | 0.00 | 0.00 | 0.00 | 82 | 1012.5 |
| 20260505041719 | 15 | 174 | 0.0 | 0.0 | 0.00 | 0.00 | 0.00 | 81 | 1011.8 |
| 20260505041232 | 15 | 174 | 0.0 | 0.0 | 0.00 | 0.00 | 0.00 | 81 | 1011.7 |
| 20260505040747 | 15 | 174 | 0.0 | 0.0 | 0.00 | 0.00 | 0.00 | 80 | 1011.6 |
| 20260505040227 | 15 | 174 | 0.0 | 0.0 | 0.00 | 0.00 | 0.00 | 80 | 1011.5 |
| 20260505035741 | 15 | 174 | 0.0 | 0.0 | 0.00 | 0.00 | 0.00 | 81 | 1011.4 |
| 20260505035225 | 15 | 174 | 0.0 | 0.0 | 0.00 | 0.00 | 0.00 | 80 | 1011.4 |
| 20260505034739 | 15 | 174 | 0.0 | 0.0 | 0.00 | 0.00 | 0.00 | 79 | 1011.3 |
| 20260505034229 | 16 | 242 | 0.0 | 0.0 | 0.00 | 0.00 | 0.00 | 79 | 1011.2 |
| 20260505033730 | 16 | 249 | 0.0 | 0.0 | 0.00 | 0.00 | 0.00 | 78 | 1011.1 |
| 20260505033224 | 16 | 175 | 0.0 | 0.0 | 0.00 | 0.00 | 0.00 | 77 | 1011.0 |
| 20260505032739 | 16 | 181 | 0.0 | 0.0 | 0.00 | 0.00 | 0.00 | 78 | 1010.9 |
| 20260505032225 | 17 | 243 | 0.0 | 0.0 | 0.00 | 0.00 | 0.00 | 76 | 1010.9 |
| 20260505031719 | 17 | 243 | 0.0 | 0.0 | 0.00 | 0.00 | 0.00 | 76 | 1010.8 |
| 20260505031225 | 17 | 243 | 0.0 | 0.0 | 0.00 | 0.00 | 0.00 | 74 | 1010.7 |
| 20260505030727 | 17 | 227 | 0.0 | 0.0 | 0.00 | 0.00 | 0.00 | 73 | 1010.6 |
| 20260505030235 | 17 | 231 | 0.0 | 0.0 | 0.00 | 0.00 | 0.00 | 72 | 1010.5 |
| 20260505025726 | 18 | 252 | 0.0 | 0.0 | 0.00 | 0.00 | 0.00 | 72 | 1010.4 |
| 20260505025257 | 18 | 207 | 0.0 | 0.0 | 0.00 | 0.00 | 0.00 | 72 | 1010.2 |
| 20260505024721 | 18 | 172 | 0.0 | 0.0 | 0.00 | 0.00 | 0.00 | 72 | 1010.1 |
| 20260505024230 | 18 | 262 | 0.0 | 0.0 | 0.00 | 0.00 | 0.00 | 71 | 1010.1 |
| 20260505023743 | 19 | 244 | 0.0 | 0.0 | 0.00 | 0.00 | 0.00 | 71 | 1010.1 |
| 20260505023227 | 19 | 186 | 0.0 | 0.0 | 0.00 | 0.00 | 0.00 | 70 | 1010.0 |
| 20260505022721 | 19 | 171 | 0.0 | 0.0 | 0.00 | 0.00 | 0.00 | 70 | 1009.9 |
| 20260505022232 | 20 | 249 | 0.0 | 0.0 | 0.00 | 0.00 | 0.00 | 69 | 1009.9 |
| 20260505021734 | 20 | 214 | 0.0 | 0.0 | 0.00 | 0.00 | 0.00 | 70 | 1009.9 |
| 20260505021219 | 20 | 204 | 0.0 | 0.0 | 0.00 | 0.00 | 0.00 | 68 | 1009.9 |
| 20260505020736 | 20 | 202 | 0.0 | 0.0 | 0.00 | 0.00 | 0.00 | 69 | 1009.9 |
| 20260505020231 | 20 | 191 | 0.0 | 0.0 | 0.00 | 0.00 | 0.00 | 69 | 1010.0 |
| 20260505015722 | 21 | 167 | 1.6 | 0.0 | 0.00 | 0.00 | 0.00 | 70 | 1010.0 |
| 20260505015229 | 21 | 176 | 1.6 | 0.0 | 0.00 | 0.00 | 0.00 | 70 | 1009.9 |
| 20260505014720 | 21 | 192 | 1.6 | 0.0 | 0.00 | 0.00 | 0.00 | 70 | 1009.9 |
| 20260505014222 | 21 | 176 | 1.6 | 0.0 | 0.00 | 0.00 | 0.00 | 71 | 1009.9 |
| 20260505013730 | 21 | 186 | 1.6 | 0.0 | 0.00 | 0.00 | 0.00 | 69 | 1010.0 |
| 20260505013241 | 21 | 169 | 1.6 | 0.0 | 0.00 | 0.00 | 0.00 | 69 | 1010.0 |
| 20260505012736 | 21 | 170 | 1.6 | 0.0 | 0.00 | 0.00 | 0.00 | 69 | 1010.0 |
| 20260505012222 | 21 | 190 | 1.6 | 0.0 | 0.00 | 0.00 | 0.00 | 69 | 1010.0 |
| 20260505011740 | 21 | 173 | 1.6 | 0.0 | 0.00 | 0.00 | 0.00 | 69 | 1010.1 |
| 20260505011249 | 21 | 194 | 3.2 | 0.0 | 0.00 | 0.00 | 0.00 | 68 | 1010.1 |
| 20260505010718 | 21 | 147 | 1.6 | 0.0 | 0.00 | 0.00 | 0.00 | 68 | 1010.2 |
| 20260505010218 | 21 | 141 | 1.6 | 0.0 | 0.00 | 0.00 | 0.00 | 68 | 1010.2 |
| 20260505005732 | 21 | 184 | 1.6 | 0.0 | 0.00 | 0.00 | 0.00 | 68 | 1010.2 |
| 20260505005221 | 21 | 171 | 3.2 | 0.0 | 0.00 | 0.00 | 0.00 | 67 | 1010.3 |
| 20260505004725 | 21 | 146 | 3.2 | 0.0 | 0.00 | 0.00 | 0.00 | 67 | 1010.3 |
| 20260505004234 | 21 | 146 | 1.6 | 0.0 | 0.00 | 0.00 | 0.00 | 67 | 1010.3 |
| 20260505003727 | 21 | 241 | 1.6 | 0.0 | 0.00 | 0.00 | 0.00 | 68 | 1010.3 |
| 20260505003232 | 21 | 174 | 1.6 | 0.0 | 0.00 | 0.00 | 0.00 | 68 | 1010.3 |
| 20260505002725 | 21 | 155 | 1.6 | 0.0 | 0.00 | 0.00 | 0.00 | 69 | 1010.4 |